This is the latest recevied weather packets stored in our database for station/object KF4UQS-14. If no packets are shown the sender has not sent any weather packets the latest 10 day(s).
| Time | Temp. | Humidity | Pressure | Rain* | Wind** | Luminosity | Snow |
|---|---|---|---|---|---|---|---|
| 1777493103 | 20.56° C | 59% | 1010.7 hPa | 0 mm | - | 383 W/m² | - |
| 1777492800 | 20.56° C | 60% | 1010.8 hPa | 0 mm | - | 318 W/m² | - |
| 1777492496 | 20.56° C | 58% | 1011 hPa | 0 mm | - | 379 W/m² | - |
| 1777492193 | 20.56° C | 60% | 1010.9 hPa | 0 mm | - | 323 W/m² | - |
| 1777491890 | 20.56° C | 60% | 1011.2 hPa | 0 mm | - | 333 W/m² | - |
| 1777491586 | 21.11° C | 59% | 1011.2 hPa | 0 mm | - | 349 W/m² | - |
| 1777491284 | 21.11° C | 60% | 1011.4 hPa | 0 mm | - | 549 W/m² | - |
| 1777490980 | 21.11° C | 60% | 1011.3 hPa | 0 mm | - | 379 W/m² | - |
| 1777490676 | 21.11° C | 60% | 1011.4 hPa | 0 mm | - | 594 W/m² | - |
| 1777490372 | 21.67° C | 60% | 1011.5 hPa | 0 mm | - | 723 W/m² | - |
| 1777490070 | 21.67° C | 59% | 1011.4 hPa | 0 mm | - | 613 W/m² | - |
| 1777489767 | 21.67° C | 59% | 1011.5 hPa | 0 mm | - | 798 W/m² | - |
| 1777489465 | 21.11° C | 61% | 1011.7 hPa | 0 mm | - | 692 W/m² | - |
| 1777489161 | 21.11° C | 61% | 1012 hPa | 0 mm | - | 735 W/m² | - |
| 1777488858 | 21.11° C | 62% | 1011.9 hPa | 0 mm | - | 491 W/m² | - |
| 1777488555 | 20.56° C | 63% | 1011.7 hPa | 0 mm | - | 745 W/m² | - |
| 1777488253 | 21.11° C | 62% | 1012 hPa | 0 mm | - | 551 W/m² | - |
| 1777487951 | 20.56° C | 65% | 1012 hPa | 0 mm | - | 472 W/m² | - |
| 1777487648 | 20° C | 65% | 1012.2 hPa | 0 mm | - | 315 W/m² | - |
| 1777487345 | 20.56° C | 65% | 1012.2 hPa | 0 mm | - | 308 W/m² | - |
| 1777487043 | 20.56° C | 63% | 1012.4 hPa | 0 mm | - | 298 W/m² | - |
| 1777486738 | 20.56° C | 64% | 1012.2 hPa | 0 mm | - | 289 W/m² | - |
| 1777486437 | 21.11° C | 62% | 1012.3 hPa | 0 mm | - | 295 W/m² | - |
| 1777486134 | 20.56° C | 60% | 1012.2 hPa | 0 mm | - | 313 W/m² | - |
| 1777485830 | 20.56° C | 59% | 1012.4 hPa | 0 mm | - | 305 W/m² | - |
* Rain latest hour (hover to see other rain measurements)
** Current wind speed in m/s (hover to see current wind gust speed)